Year,Month,Day,Hour,Minute,Value (Times are PST for temperature in C)
2013,04,25,00,00,8.90
2013,04,25,00,01,8.90
2013,04,25,00,02,8.90
2013,04,25,00,03,8.90
2013,04,25,00,04,8.90
2013,04,25,00,05,8.90
2013,04,25,00,06,8.90
2013,04,25,00,07,8.90
2013,04,25,00,08,8.90
2013,04,25,00,09,8.90
2013,04,25,00,10,8.90
2013,04,25,00,11,8.90
2013,04,25,00,12,8.90
2013,04,25,00,13,8.90
2013,04,25,00,14,8.80
2013,04,25,00,15,8.80
2013,04,25,00,16,8.80
2013,04,25,00,17,8.80
2013,04,25,00,18,8.80
2013,04,25,00,19,8.80
2013,04,25,00,20,8.80
2013,04,25,00,21,8.80
2013,04,25,00,22,8.70
2013,04,25,00,23,8.70
2013,04,25,00,24,8.70
2013,04,25,00,25,8.70
2013,04,25,00,26,8.70
2013,04,25,00,27,8.70
2013,04,25,00,28,8.70
2013,04,25,00,29,8.60
2013,04,25,00,30,8.60
2013,04,25,00,31,8.50
2013,04,25,00,32,8.50
2013,04,25,00,33,8.40
2013,04,25,00,34,8.40
2013,04,25,00,35,8.30
2013,04,25,00,36,8.30
2013,04,25,00,37,8.30
2013,04,25,00,38,8.20
2013,04,25,00,39,8.20
2013,04,25,00,40,8.20
2013,04,25,00,41,8.20
2013,04,25,00,42,8.20
2013,04,25,00,43,8.20
2013,04,25,00,44,8.20
2013,04,25,00,45,8.20
2013,04,25,00,46,8.20
2013,04,25,00,47,8.20
2013,04,25,00,48,8.10
2013,04,25,00,49,8.10
2013,04,25,00,50,8.10
2013,04,25,00,51,8.10
2013,04,25,00,52,8.10
2013,04,25,00,53,8.00
2013,04,25,00,54,8.00
2013,04,25,00,55,8.00
2013,04,25,00,56,7.90
2013,04,25,00,57,7.90
2013,04,25,00,58,7.90
2013,04,25,00,59,7.90
2013,04,25,01,00,7.90
2013,04,25,01,01,7.90
2013,04,25,01,02,7.90
2013,04,25,01,03,7.90
2013,04,25,01,04,7.90
2013,04,25,01,05,7.90
2013,04,25,01,06,7.90
2013,04,25,01,07,7.90
2013,04,25,01,08,7.90
2013,04,25,01,09,7.80
2013,04,25,01,10,7.80
2013,04,25,01,11,7.80
2013,04,25,01,12,7.80
2013,04,25,01,13,7.80
2013,04,25,01,14,7.80
2013,04,25,01,15,7.80
2013,04,25,01,16,7.80
2013,04,25,01,17,7.80
2013,04,25,01,18,7.80
2013,04,25,01,19,7.80
2013,04,25,01,20,7.80
2013,04,25,01,21,7.80
2013,04,25,01,22,7.80
2013,04,25,01,23,7.80
2013,04,25,01,24,7.80
2013,04,25,01,25,7.80
2013,04,25,01,26,7.80
2013,04,25,01,27,7.80
2013,04,25,01,28,7.80
2013,04,25,01,29,7.80
2013,04,25,01,30,7.80
2013,04,25,01,31,7.70
2013,04,25,01,32,7.70
2013,04,25,01,33,7.70
2013,04,25,01,34,7.70
2013,04,25,01,35,7.70
2013,04,25,01,36,7.70
2013,04,25,01,37,7.70
2013,04,25,01,38,7.70
2013,04,25,01,39,7.70
2013,04,25,01,40,7.60
2013,04,25,01,41,7.60
2013,04,25,01,42,7.60
2013,04,25,01,43,7.60
2013,04,25,01,44,7.60
2013,04,25,01,45,7.60
2013,04,25,01,46,7.60
2013,04,25,01,47,7.60
2013,04,25,01,48,7.60
2013,04,25,01,49,7.50
2013,04,25,01,50,7.50
2013,04,25,01,51,7.50
2013,04,25,01,52,7.50
2013,04,25,01,53,7.50
2013,04,25,01,54,7.50
2013,04,25,01,55,7.40
2013,04,25,01,56,7.40
2013,04,25,01,57,7.40
2013,04,25,01,58,7.40
2013,04,25,01,59,7.40
2013,04,25,02,00,7.30
2013,04,25,02,01,7.30
2013,04,25,02,02,7.30
2013,04,25,02,03,7.30
2013,04,25,02,04,7.30
2013,04,25,02,05,7.30
2013,04,25,02,06,7.30
2013,04,25,02,07,7.30
2013,04,25,02,08,7.20
2013,04,25,02,09,7.20
2013,04,25,02,10,7.20
2013,04,25,02,11,7.20
2013,04,25,02,12,7.20
2013,04,25,02,13,7.20
2013,04,25,02,14,7.20
2013,04,25,02,15,7.20
2013,04,25,02,16,7.20
2013,04,25,02,17,7.20
2013,04,25,02,18,7.20
2013,04,25,02,19,7.20
2013,04,25,02,20,7.20
2013,04,25,02,21,7.20
2013,04,25,02,22,7.10
2013,04,25,02,23,7.10
2013,04,25,02,24,7.10
2013,04,25,02,25,7.10
2013,04,25,02,26,7.10
2013,04,25,02,27,7.00
2013,04,25,02,28,7.00
2013,04,25,02,29,7.00
2013,04,25,02,30,7.00
2013,04,25,02,31,6.90
2013,04,25,02,32,6.90
2013,04,25,02,33,7.00
2013,04,25,02,34,7.00
2013,04,25,02,35,7.00
2013,04,25,02,36,7.00
2013,04,25,02,37,6.90
2013,04,25,02,38,6.90
2013,04,25,02,39,7.00
2013,04,25,02,40,6.90
2013,04,25,02,41,6.90
2013,04,25,02,42,6.90
2013,04,25,02,43,6.90
2013,04,25,02,44,6.90
2013,04,25,02,45,6.90
2013,04,25,02,46,6.80
2013,04,25,02,47,6.80
2013,04,25,02,48,6.80
2013,04,25,02,49,6.90
2013,04,25,02,50,6.90
2013,04,25,02,51,6.90
2013,04,25,02,52,7.00
2013,04,25,02,53,7.00
2013,04,25,02,54,6.90
2013,04,25,02,55,6.90
2013,04,25,02,56,6.90
2013,04,25,02,57,6.90
2013,04,25,02,58,6.90
2013,04,25,02,59,6.90
2013,04,25,03,00,7.00
2013,04,25,03,01,7.00
2013,04,25,03,02,6.90
2013,04,25,03,03,6.90
2013,04,25,03,04,6.90
2013,04,25,03,05,6.90
2013,04,25,03,06,6.90
2013,04,25,03,07,6.90
2013,04,25,03,08,6.90
2013,04,25,03,09,6.90
2013,04,25,03,10,6.90
2013,04,25,03,11,6.80
2013,04,25,03,12,6.80
2013,04,25,03,13,6.80
2013,04,25,03,14,6.80
2013,04,25,03,15,6.90
2013,04,25,03,16,6.90
2013,04,25,03,17,7.00
2013,04,25,03,18,7.00
2013,04,25,03,19,7.10
2013,04,25,03,20,7.10
2013,04,25,03,21,7.10
2013,04,25,03,22,7.10
2013,04,25,03,23,7.10
2013,04,25,03,24,7.10
2013,04,25,03,25,7.10
2013,04,25,03,26,7.10
2013,04,25,03,27,7.00
2013,04,25,03,28,7.00
2013,04,25,03,29,7.00
2013,04,25,03,30,7.00
2013,04,25,03,31,7.00
2013,04,25,03,32,6.90
2013,04,25,03,33,6.90
2013,04,25,03,34,6.90
2013,04,25,03,35,6.90
2013,04,25,03,36,6.90
2013,04,25,03,37,6.90
2013,04,25,03,38,6.90
2013,04,25,03,39,6.90
2013,04,25,03,40,6.90
2013,04,25,03,41,6.90
2013,04,25,03,42,6.90
2013,04,25,03,43,6.90
2013,04,25,03,44,6.90
2013,04,25,03,45,6.80
2013,04,25,03,46,6.80
2013,04,25,03,47,6.80
2013,04,25,03,48,6.80
2013,04,25,03,49,6.80
2013,04,25,03,50,6.80
2013,04,25,03,51,6.90
2013,04,25,03,52,7.00
2013,04,25,03,53,7.10
2013,04,25,03,54,7.20
2013,04,25,03,55,7.20
2013,04,25,03,56,7.20
2013,04,25,03,57,7.20
2013,04,25,03,58,7.10
2013,04,25,03,59,7.00
2013,04,25,04,00,6.90
2013,04,25,04,01,6.90
2013,04,25,04,02,6.80
2013,04,25,04,03,6.80
2013,04,25,04,04,6.80
2013,04,25,04,05,6.80
2013,04,25,04,06,6.80
2013,04,25,04,07,6.80
2013,04,25,04,08,6.80
2013,04,25,04,09,6.80
2013,04,25,04,10,6.80
2013,04,25,04,11,6.80
2013,04,25,04,12,6.80
2013,04,25,04,13,6.80
2013,04,25,04,14,6.80
2013,04,25,04,15,6.80
2013,04,25,04,16,6.80
2013,04,25,04,17,6.80
2013,04,25,04,18,6.80
2013,04,25,04,19,6.80
2013,04,25,04,20,6.80
2013,04,25,04,21,6.80
2013,04,25,04,22,6.70
2013,04,25,04,23,6.70
2013,04,25,04,24,6.70
2013,04,25,04,25,6.60
2013,04,25,04,26,6.60
2013,04,25,04,27,6.50
2013,04,25,04,28,6.50
2013,04,25,04,29,6.40
2013,04,25,04,30,6.40
2013,04,25,04,31,6.40
2013,04,25,04,32,6.40
2013,04,25,04,33,6.40
2013,04,25,04,34,6.30
2013,04,25,04,35,6.30
2013,04,25,04,36,6.30
2013,04,25,04,37,6.30
2013,04,25,04,38,6.30
2013,04,25,04,39,6.30
2013,04,25,04,40,6.20
2013,04,25,04,41,6.30
2013,04,25,04,42,6.30
2013,04,25,04,43,6.30
2013,04,25,04,44,6.30
2013,04,25,04,45,6.30
2013,04,25,04,46,6.30
2013,04,25,04,47,6.30
2013,04,25,04,48,6.30
2013,04,25,04,49,6.30
2013,04,25,04,50,6.30
2013,04,25,04,51,6.30
2013,04,25,04,52,6.40
2013,04,25,04,53,6.40
2013,04,25,04,54,6.40
2013,04,25,04,55,6.40
2013,04,25,04,56,6.40
2013,04,25,04,57,6.40
2013,04,25,04,58,6.40
2013,04,25,04,59,6.50
2013,04,25,05,00,6.50
2013,04,25,05,01,6.50
2013,04,25,05,02,6.60
2013,04,25,05,03,6.60
2013,04,25,05,04,6.60
2013,04,25,05,05,6.60
2013,04,25,05,06,6.70
2013,04,25,05,07,6.70
2013,04,25,05,08,6.70
2013,04,25,05,09,6.70
2013,04,25,05,10,6.70
2013,04,25,05,11,6.70
2013,04,25,05,12,6.70
2013,04,25,05,13,6.70
2013,04,25,05,14,6.80
2013,04,25,05,15,6.80
2013,04,25,05,16,6.70
2013,04,25,05,17,6.70
2013,04,25,05,18,6.70
2013,04,25,05,19,6.70
2013,04,25,05,20,6.60
2013,04,25,05,21,6.60
2013,04,25,05,22,6.60
2013,04,25,05,23,6.60
2013,04,25,05,24,6.60
2013,04,25,05,25,6.60
2013,04,25,05,26,6.60
2013,04,25,05,27,6.60
2013,04,25,05,28,6.50
2013,04,25,05,29,6.60
2013,04,25,05,30,6.60
2013,04,25,05,31,6.60
2013,04,25,05,32,6.60
2013,04,25,05,33,6.60
2013,04,25,05,34,6.60
2013,04,25,05,35,6.70
2013,04,25,05,36,6.70
2013,04,25,05,37,6.70
2013,04,25,05,38,6.70
2013,04,25,05,39,6.70
2013,04,25,05,40,6.70
2013,04,25,05,41,6.70
2013,04,25,05,42,6.70
2013,04,25,05,43,6.60
2013,04,25,05,44,6.60
2013,04,25,05,45,6.60
2013,04,25,05,46,6.70
2013,04,25,05,47,6.70
2013,04,25,05,48,6.70
2013,04,25,05,49,6.70
2013,04,25,05,50,6.70
2013,04,25,05,51,6.70
2013,04,25,05,52,6.70
2013,04,25,05,53,6.70
2013,04,25,05,54,6.70
2013,04,25,05,55,6.70
2013,04,25,05,56,6.70
2013,04,25,05,57,6.70
2013,04,25,05,58,6.70
2013,04,25,05,59,6.60
2013,04,25,06,00,6.60
2013,04,25,06,01,6.60
2013,04,25,06,02,6.60
2013,04,25,06,03,6.60
2013,04,25,06,04,6.60
2013,04,25,06,05,6.60
2013,04,25,06,06,6.60
2013,04,25,06,07,6.50
2013,04,25,06,08,6.50
2013,04,25,06,09,6.50
2013,04,25,06,10,6.40
2013,04,25,06,11,6.40
2013,04,25,06,12,6.40
2013,04,25,06,13,6.30
2013,04,25,06,14,6.30
2013,04,25,06,15,6.30
2013,04,25,06,16,6.30
2013,04,25,06,17,6.20
2013,04,25,06,18,6.20
2013,04,25,06,19,6.20
2013,04,25,06,20,6.10
2013,04,25,06,21,6.10
2013,04,25,06,22,6.10
2013,04,25,06,23,6.00
2013,04,25,06,24,6.00
2013,04,25,06,25,6.00
2013,04,25,06,26,6.00
2013,04,25,06,27,6.00
2013,04,25,06,28,6.00
2013,04,25,06,29,6.00
2013,04,25,06,30,6.00
2013,04,25,06,31,6.00
2013,04,25,06,32,6.00
2013,04,25,06,33,6.00
2013,04,25,06,34,6.00
2013,04,25,06,35,6.00
2013,04,25,06,36,6.00
2013,04,25,06,37,6.00
2013,04,25,06,38,6.00
2013,04,25,06,39,6.10
2013,04,25,06,40,6.10
2013,04,25,06,41,6.10
2013,04,25,06,42,6.20
2013,04,25,06,43,6.20
2013,04,25,06,44,6.20
2013,04,25,06,45,6.20
2013,04,25,06,46,6.30
2013,04,25,06,47,6.30
2013,04,25,06,48,6.40
2013,04,25,06,49,6.40
2013,04,25,06,50,6.50
2013,04,25,06,51,6.50
2013,04,25,06,52,6.60
2013,04,25,06,53,6.60
2013,04,25,06,54,6.70
2013,04,25,06,55,6.70
2013,04,25,06,56,6.70
2013,04,25,06,57,6.80
2013,04,25,06,58,6.80
2013,04,25,06,59,6.80
2013,04,25,07,00,6.90
2013,04,25,07,01,6.90
2013,04,25,07,02,6.90
2013,04,25,07,03,7.00
2013,04,25,07,04,7.00
2013,04,25,07,05,7.10
2013,04,25,07,06,7.10
2013,04,25,07,07,7.10
2013,04,25,07,08,7.10
2013,04,25,07,09,7.10
2013,04,25,07,10,7.10
2013,04,25,07,11,7.10
2013,04,25,07,12,7.10
2013,04,25,07,13,7.20
2013,04,25,07,14,7.20
2013,04,25,07,15,7.20
2013,04,25,07,16,7.20
2013,04,25,07,17,7.30
2013,04,25,07,18,7.30
2013,04,25,07,19,7.30
2013,04,25,07,20,7.40
2013,04,25,07,21,7.40
2013,04,25,07,22,7.50
2013,04,25,07,23,7.60
2013,04,25,07,24,7.60
2013,04,25,07,25,7.70
2013,04,25,07,26,7.70
2013,04,25,07,27,7.80
2013,04,25,07,28,7.80
2013,04,25,07,29,7.80
2013,04,25,07,30,7.90
2013,04,25,07,31,7.90
2013,04,25,07,32,8.00
2013,04,25,07,33,8.00
2013,04,25,07,34,8.00
2013,04,25,07,35,8.10
2013,04,25,07,36,8.10
2013,04,25,07,37,8.10
2013,04,25,07,38,8.20
2013,04,25,07,39,8.20
2013,04,25,07,40,8.30
2013,04,25,07,41,8.30
2013,04,25,07,42,8.30
2013,04,25,07,43,8.40
2013,04,25,07,44,8.40
2013,04,25,07,45,8.50
2013,04,25,07,46,8.50
2013,04,25,07,47,8.60
2013,04,25,07,48,8.70
2013,04,25,07,49,8.80
2013,04,25,07,50,8.80
2013,04,25,07,51,8.90
2013,04,25,07,52,9.00
2013,04,25,07,53,9.00
2013,04,25,07,54,9.10
2013,04,25,07,55,9.20
2013,04,25,07,56,9.20
2013,04,25,07,57,9.30
2013,04,25,07,58,9.40
2013,04,25,07,59,9.50
2013,04,25,08,00,9.50
2013,04,25,08,01,9.60
2013,04,25,08,02,9.70
2013,04,25,08,03,9.70
2013,04,25,08,04,9.80
2013,04,25,08,05,9.80
2013,04,25,08,06,9.80
2013,04,25,08,07,9.90
2013,04,25,08,08,10.00
2013,04,25,08,09,10.00
2013,04,25,08,10,10.10
2013,04,25,08,11,10.10
2013,04,25,08,12,10.20
2013,04,25,08,13,10.20
2013,04,25,08,14,10.30
2013,04,25,08,15,10.30
2013,04,25,08,16,10.40
2013,04,25,08,17,10.40
2013,04,25,08,18,10.50
2013,04,25,08,19,10.60
2013,04,25,08,20,10.60
2013,04,25,08,21,10.70
2013,04,25,08,22,10.70
2013,04,25,08,23,10.80
2013,04,25,08,24,10.80
2013,04,25,08,25,10.90
2013,04,25,08,26,10.90
2013,04,25,08,27,10.90
2013,04,25,08,28,10.90
2013,04,25,08,29,11.00
2013,04,25,08,30,11.00
2013,04,25,08,31,11.00
2013,04,25,08,32,11.00
2013,04,25,08,33,11.10
2013,04,25,08,34,11.10
2013,04,25,08,35,11.00
2013,04,25,08,36,11.00
2013,04,25,08,37,11.00
2013,04,25,08,38,11.00
2013,04,25,08,39,11.10
2013,04,25,08,40,11.10
2013,04,25,08,41,11.10
2013,04,25,08,42,11.20
2013,04,25,08,43,11.20
2013,04,25,08,44,11.20
2013,04,25,08,45,11.20
2013,04,25,08,46,11.30
2013,04,25,08,47,11.30
2013,04,25,08,48,11.30
2013,04,25,08,49,11.30
2013,04,25,08,50,11.30
2013,04,25,08,51,11.30
2013,04,25,08,52,11.30
2013,04,25,08,53,11.30
2013,04,25,08,54,11.30
2013,04,25,08,55,11.40
2013,04,25,08,56,11.40
2013,04,25,08,57,11.50
2013,04,25,08,58,11.50
2013,04,25,08,59,11.60
2013,04,25,09,00,11.60
2013,04,25,09,01,11.60
2013,04,25,09,02,11.70
2013,04,25,09,03,11.70
2013,04,25,09,04,11.70
2013,04,25,09,05,11.70
2013,04,25,09,06,11.70
2013,04,25,09,07,11.70
2013,04,25,09,08,11.70
2013,04,25,09,09,11.70
2013,04,25,09,10,11.70
2013,04,25,09,11,11.70
2013,04,25,09,12,11.70
2013,04,25,09,13,11.70
2013,04,25,09,14,11.80
2013,04,25,09,15,11.80
2013,04,25,09,16,11.80
2013,04,25,09,17,11.80
2013,04,25,09,18,11.80
2013,04,25,09,19,11.80
2013,04,25,09,20,11.80
2013,04,25,09,21,11.80
2013,04,25,09,22,11.90
2013,04,25,09,23,11.90
2013,04,25,09,24,11.90
2013,04,25,09,25,11.90
2013,04,25,09,26,11.90
2013,04,25,09,27,12.00
2013,04,25,09,28,12.00
2013,04,25,09,29,12.10
2013,04,25,09,30,12.10
2013,04,25,09,31,12.20
2013,04,25,09,32,12.20
2013,04,25,09,33,12.30
2013,04,25,09,34,12.30
2013,04,25,09,35,12.40
2013,04,25,09,36,12.40
2013,04,25,09,37,12.50
2013,04,25,09,38,12.50
2013,04,25,09,39,12.60
2013,04,25,09,40,12.60
2013,04,25,09,41,12.60
2013,04,25,09,42,12.70
2013,04,25,09,43,12.70
2013,04,25,09,44,12.70
2013,04,25,09,45,12.70
2013,04,25,09,46,12.70
2013,04,25,09,47,12.70
2013,04,25,09,48,12.70
2013,04,25,09,49,12.70
2013,04,25,09,50,12.70
2013,04,25,09,51,12.60
2013,04,25,09,52,12.50
2013,04,25,09,53,12.40
2013,04,25,09,54,12.40
2013,04,25,09,55,12.30
2013,04,25,09,56,12.30
2013,04,25,09,57,12.40
2013,04,25,09,58,12.40
2013,04,25,09,59,12.40
2013,04,25,10,00,12.30
2013,04,25,10,01,12.30
2013,04,25,10,02,12.30
2013,04,25,10,03,12.30
2013,04,25,10,04,12.30
2013,04,25,10,05,12.30
2013,04,25,10,06,12.30
2013,04,25,10,07,12.30
2013,04,25,10,08,12.40
2013,04,25,10,09,12.40
2013,04,25,10,10,12.30
2013,04,25,10,11,12.30
2013,04,25,10,12,12.30
2013,04,25,10,13,12.40
2013,04,25,10,14,12.40
2013,04,25,10,15,12.40
2013,04,25,10,16,12.40
2013,04,25,10,17,12.40
2013,04,25,10,18,12.50
2013,04,25,10,19,12.50
2013,04,25,10,20,12.40
2013,04,25,10,21,12.40
2013,04,25,10,22,12.40
2013,04,25,10,23,12.30
2013,04,25,10,24,12.20
2013,04,25,10,25,12.20
2013,04,25,10,26,12.10
2013,04,25,10,27,12.00
2013,04,25,10,28,11.90
2013,04,25,10,29,11.90
2013,04,25,10,30,11.90
2013,04,25,10,31,12.00
2013,04,25,10,32,12.00
2013,04,25,10,33,12.00
2013,04,25,10,34,12.00
2013,04,25,10,35,12.00
2013,04,25,10,36,11.90
2013,04,25,10,37,11.90
2013,04,25,10,38,11.90
2013,04,25,10,39,11.90
2013,04,25,10,40,11.80
2013,04,25,10,41,11.80
2013,04,25,10,42,11.80
2013,04,25,10,43,11.80
2013,04,25,10,44,11.80
2013,04,25,10,45,11.80
2013,04,25,10,46,11.90
2013,04,25,10,47,11.90
2013,04,25,10,48,12.10
2013,04,25,10,49,12.20
2013,04,25,10,50,12.30
2013,04,25,10,51,12.30
2013,04,25,10,52,12.40
2013,04,25,10,53,12.50
2013,04,25,10,54,12.60
2013,04,25,10,55,12.70
2013,04,25,10,56,12.80
2013,04,25,10,57,12.80
2013,04,25,10,58,13.00
2013,04,25,10,59,13.10
2013,04,25,11,00,13.20
2013,04,25,11,01,13.30
2013,04,25,11,02,13.30
2013,04,25,11,03,13.40
2013,04,25,11,04,13.40
2013,04,25,11,05,13.40
2013,04,25,11,06,13.40
2013,04,25,11,07,13.40
2013,04,25,11,08,13.40
2013,04,25,11,09,13.40
2013,04,25,11,10,13.50
2013,04,25,11,11,13.50
2013,04,25,11,12,13.60
2013,04,25,11,13,13.60
2013,04,25,11,14,13.70
2013,04,25,11,15,13.70
2013,04,25,11,16,13.80
2013,04,25,11,17,13.80
2013,04,25,11,18,13.90
2013,04,25,11,19,14.00
2013,04,25,11,20,14.10
2013,04,25,11,21,14.10
2013,04,25,11,22,14.10
2013,04,25,11,23,14.10
2013,04,25,11,24,14.10
2013,04,25,11,25,14.10
2013,04,25,11,26,14.10
2013,04,25,11,27,14.10
2013,04,25,11,28,14.20
2013,04,25,11,29,14.20
2013,04,25,11,30,14.20
2013,04,25,11,31,14.20
2013,04,25,11,32,14.20
2013,04,25,11,33,14.20
2013,04,25,11,34,14.20
2013,04,25,11,35,14.20
2013,04,25,11,36,14.30
2013,04,25,11,37,14.30
2013,04,25,11,38,14.30
2013,04,25,11,39,14.30
2013,04,25,11,40,14.40
2013,04,25,11,41,14.40
2013,04,25,11,42,14.50
2013,04,25,11,43,14.50
2013,04,25,11,44,14.60
2013,04,25,11,45,14.60
2013,04,25,11,46,14.60
2013,04,25,11,47,14.60
2013,04,25,11,48,14.60
2013,04,25,11,49,14.60
2013,04,25,11,50,14.60
2013,04,25,11,51,14.50
2013,04,25,11,52,14.50
2013,04,25,11,53,14.50
2013,04,25,11,54,14.50
2013,04,25,11,55,14.50
2013,04,25,11,56,14.50
2013,04,25,11,57,14.40
2013,04,25,11,58,14.30
2013,04,25,11,59,14.30
2013,04,25,12,00,14.30
2013,04,25,12,01,14.30
2013,04,25,12,02,14.30
2013,04,25,12,03,14.40
2013,04,25,12,04,14.40
2013,04,25,12,05,14.40
2013,04,25,12,06,14.40
2013,04,25,12,07,14.40
2013,04,25,12,08,14.40
2013,04,25,12,09,14.40
2013,04,25,12,10,14.40
2013,04,25,12,11,14.50
2013,04,25,12,12,14.60
2013,04,25,12,13,14.70
2013,04,25,12,14,14.70
2013,04,25,12,15,14.80
2013,04,25,12,16,14.80
2013,04,25,12,17,14.80
2013,04,25,12,18,14.80
2013,04,25,12,19,14.80
2013,04,25,12,20,14.80
2013,04,25,12,21,14.80
2013,04,25,12,22,14.80
2013,04,25,12,23,14.80
2013,04,25,12,24,14.80
2013,04,25,12,25,14.80
2013,04,25,12,26,14.80
2013,04,25,12,27,14.80
2013,04,25,12,28,14.80
2013,04,25,12,29,14.90
2013,04,25,12,30,14.90
2013,04,25,12,31,15.00
2013,04,25,12,32,15.00
2013,04,25,12,33,15.10
2013,04,25,12,34,15.20
2013,04,25,12,35,15.20
2013,04,25,12,36,15.20
2013,04,25,12,37,15.10
2013,04,25,12,38,15.00
2013,04,25,12,39,15.00
2013,04,25,12,40,14.90
2013,04,25,12,41,14.90
2013,04,25,12,42,14.80
2013,04,25,12,43,14.80
2013,04,25,12,44,14.80
2013,04,25,12,45,14.70
2013,04,25,12,46,14.70
2013,04,25,12,47,14.70
2013,04,25,12,48,14.70
2013,04,25,12,49,14.70
2013,04,25,12,50,14.70
2013,04,25,12,51,14.70
2013,04,25,12,52,14.70
2013,04,25,12,53,14.80
2013,04,25,12,54,14.90
2013,04,25,12,55,14.90
2013,04,25,12,56,14.90
2013,04,25,12,57,14.90
2013,04,25,12,58,14.90
2013,04,25,12,59,14.90
2013,04,25,13,00,15.00
2013,04,25,13,01,15.00
2013,04,25,13,02,15.00
2013,04,25,13,03,15.10
2013,04,25,13,04,15.10
2013,04,25,13,05,15.20
2013,04,25,13,06,15.30
2013,04,25,13,07,15.30
2013,04,25,13,08,15.40
2013,04,25,13,09,15.50
2013,04,25,13,10,15.60
2013,04,25,13,11,15.60
2013,04,25,13,12,15.70
2013,04,25,13,13,15.70
2013,04,25,13,14,15.70
2013,04,25,13,15,15.60
2013,04,25,13,16,15.50
2013,04,25,13,17,15.50
2013,04,25,13,18,15.50
2013,04,25,13,19,15.50
2013,04,25,13,20,15.50
2013,04,25,13,21,15.40
2013,04,25,13,22,15.40
2013,04,25,13,23,15.40
2013,04,25,13,24,15.40
2013,04,25,13,25,15.40
2013,04,25,13,26,15.40
2013,04,25,13,27,15.40
2013,04,25,13,28,15.40
2013,04,25,13,29,15.40
2013,04,25,13,30,15.40
2013,04,25,13,31,15.40
2013,04,25,13,32,15.40
2013,04,25,13,33,15.40
2013,04,25,13,34,15.40
2013,04,25,13,35,15.50
2013,04,25,13,36,15.50
2013,04,25,13,37,15.60
2013,04,25,13,38,15.60
2013,04,25,13,39,15.50
2013,04,25,13,40,15.50
2013,04,25,13,41,15.60
2013,04,25,13,42,15.50
2013,04,25,13,43,15.50
2013,04,25,13,44,15.40
2013,04,25,13,45,15.40
2013,04,25,13,46,15.40
2013,04,25,13,47,15.40
2013,04,25,13,48,15.30
2013,04,25,13,49,15.30
2013,04,25,13,50,15.20
2013,04,25,13,51,15.20
2013,04,25,13,52,15.20
2013,04,25,13,53,15.20
2013,04,25,13,54,15.10
2013,04,25,13,55,15.20
2013,04,25,13,56,15.20
2013,04,25,13,57,15.30
2013,04,25,13,58,15.30
2013,04,25,13,59,15.40
2013,04,25,14,00,15.40
2013,04,25,14,01,15.40
2013,04,25,14,02,15.40
2013,04,25,14,03,15.40
2013,04,25,14,04,15.40
2013,04,25,14,05,15.40
2013,04,25,14,06,15.40
2013,04,25,14,07,15.40
2013,04,25,14,08,15.50
2013,04,25,14,09,15.60
2013,04,25,14,10,15.70
2013,04,25,14,11,15.80
2013,04,25,14,12,15.80
2013,04,25,14,13,15.90
2013,04,25,14,14,15.90
2013,04,25,14,15,16.00
2013,04,25,14,16,16.00
2013,04,25,14,17,16.00
2013,04,25,14,18,16.00
2013,04,25,14,19,16.00
2013,04,25,14,20,16.10
2013,04,25,14,21,16.20
2013,04,25,14,22,16.30
2013,04,25,14,23,16.40
2013,04,25,14,24,16.50
2013,04,25,14,25,16.50
2013,04,25,14,26,16.60
2013,04,25,14,27,16.60
2013,04,25,14,28,16.60
2013,04,25,14,29,16.60
2013,04,25,14,30,16.60
2013,04,25,14,31,16.60
2013,04,25,14,32,16.60
2013,04,25,14,33,16.70
2013,04,25,14,34,16.60
2013,04,25,14,35,16.60
2013,04,25,14,36,16.50
2013,04,25,14,37,16.40
2013,04,25,14,38,16.30
2013,04,25,14,39,16.30
2013,04,25,14,40,16.20
2013,04,25,14,41,16.20
2013,04,25,14,42,16.20
2013,04,25,14,43,16.10
2013,04,25,14,44,16.10
2013,04,25,14,45,16.10
2013,04,25,14,46,16.00
2013,04,25,14,47,16.00
2013,04,25,14,48,16.00
2013,04,25,14,49,16.00
2013,04,25,14,50,16.00
2013,04,25,14,51,16.00
2013,04,25,14,52,16.10
2013,04,25,14,53,16.10
2013,04,25,14,54,16.10
2013,04,25,14,55,16.00
2013,04,25,14,56,15.90
2013,04,25,14,57,15.90
2013,04,25,14,58,15.90
2013,04,25,14,59,15.90
2013,04,25,15,00,15.90
2013,04,25,15,01,15.90
2013,04,25,15,02,15.90
2013,04,25,15,03,15.90
2013,04,25,15,04,15.90
2013,04,25,15,05,16.00
2013,04,25,15,06,16.10
2013,04,25,15,07,16.20
2013,04,25,15,08,16.30
2013,04,25,15,09,16.30
2013,04,25,15,10,16.30
2013,04,25,15,11,16.30
2013,04,25,15,12,16.40
2013,04,25,15,13,16.40
2013,04,25,15,14,16.40
2013,04,25,15,15,16.50
2013,04,25,15,16,16.50
2013,04,25,15,17,16.60
2013,04,25,15,18,16.70
2013,04,25,15,19,16.70
2013,04,25,15,20,16.80
2013,04,25,15,21,16.80
2013,04,25,15,22,16.80
2013,04,25,15,23,16.70
2013,04,25,15,24,16.70
2013,04,25,15,25,16.70
2013,04,25,15,26,16.70
2013,04,25,15,27,16.70
2013,04,25,15,28,16.80
2013,04,25,15,29,16.80
2013,04,25,15,30,16.90
2013,04,25,15,31,16.90
2013,04,25,15,32,16.90
2013,04,25,15,33,16.90
2013,04,25,15,34,16.80
2013,04,25,15,35,16.80
2013,04,25,15,36,16.80
2013,04,25,15,37,16.70
2013,04,25,15,38,16.60
2013,04,25,15,39,16.60
2013,04,25,15,40,16.60
2013,04,25,15,41,16.60
2013,04,25,15,42,16.60
2013,04,25,15,43,16.50
2013,04,25,15,44,16.50
2013,04,25,15,45,16.50
2013,04,25,15,46,16.40
2013,04,25,15,47,16.40
2013,04,25,15,48,16.40
2013,04,25,15,49,16.40
2013,04,25,15,50,16.40
2013,04,25,15,51,16.40
2013,04,25,15,52,16.20
2013,04,25,15,53,16.10
2013,04,25,15,54,16.00
2013,04,25,15,55,15.90
2013,04,25,15,56,15.90
2013,04,25,15,57,15.80
2013,04,25,15,58,15.70
2013,04,25,15,59,15.70
2013,04,25,16,00,15.70
2013,04,25,16,01,15.70
2013,04,25,16,02,15.70
2013,04,25,16,03,15.70
2013,04,25,16,04,15.70
2013,04,25,16,05,15.70
2013,04,25,16,06,15.70
2013,04,25,16,07,15.70
2013,04,25,16,08,15.70
2013,04,25,16,09,15.70
2013,04,25,16,10,15.70
2013,04,25,16,11,15.70
2013,04,25,16,12,15.70
2013,04,25,16,13,15.70
2013,04,25,16,14,15.70
2013,04,25,16,15,15.80
2013,04,25,16,16,15.80
2013,04,25,16,17,15.90
2013,04,25,16,18,16.00
2013,04,25,16,19,16.00
2013,04,25,16,20,16.00
2013,04,25,16,21,16.00
2013,04,25,16,22,16.00
2013,04,25,16,23,16.00
2013,04,25,16,24,15.90
2013,04,25,16,25,15.70
2013,04,25,16,26,15.70
2013,04,25,16,27,15.70
2013,04,25,16,28,15.70
2013,04,25,16,29,15.70
2013,04,25,16,30,15.70
2013,04,25,16,31,15.70
2013,04,25,16,32,15.70
2013,04,25,16,33,15.70
2013,04,25,16,34,15.70
2013,04,25,16,35,15.80
2013,04,25,16,36,15.80
2013,04,25,16,37,15.70
2013,04,25,16,38,15.70
2013,04,25,16,39,15.60
2013,04,25,16,40,15.50
2013,04,25,16,41,15.40
2013,04,25,16,42,15.40
2013,04,25,16,43,15.30
2013,04,25,16,44,15.20
2013,04,25,16,45,15.10
2013,04,25,16,46,15.10
2013,04,25,16,47,15.10
2013,04,25,16,48,15.10
2013,04,25,16,49,15.10
2013,04,25,16,50,15.20
2013,04,25,16,51,15.20
2013,04,25,16,52,15.20
2013,04,25,16,53,15.00
2013,04,25,16,54,15.00
2013,04,25,16,55,14.90
2013,04,25,16,56,14.80
2013,04,25,16,57,14.80
2013,04,25,16,58,14.70
2013,04,25,16,59,14.70
2013,04,25,17,00,14.70
2013,04,25,17,01,14.80
2013,04,25,17,02,14.70
2013,04,25,17,03,14.60
2013,04,25,17,04,14.50
2013,04,25,17,05,14.40
2013,04,25,17,06,14.40
2013,04,25,17,07,14.40
2013,04,25,17,08,14.50
2013,04,25,17,09,14.50
2013,04,25,17,10,14.50
2013,04,25,17,11,14.40
2013,04,25,17,12,14.40
2013,04,25,17,13,14.40
2013,04,25,17,14,14.40
2013,04,25,17,15,14.40
2013,04,25,17,16,14.30
2013,04,25,17,17,14.30
2013,04,25,17,18,14.30
2013,04,25,17,19,14.20
2013,04,25,17,20,14.20
2013,04,25,17,21,14.20
2013,04,25,17,22,14.20
2013,04,25,17,23,14.30
2013,04,25,17,24,14.30
2013,04,25,17,25,14.30
2013,04,25,17,26,14.30
2013,04,25,17,27,14.30
2013,04,25,17,28,14.30
2013,04,25,17,29,14.30
2013,04,25,17,30,14.30
2013,04,25,17,31,14.30
2013,04,25,17,32,14.30
2013,04,25,17,33,14.30
2013,04,25,17,34,14.30
2013,04,25,17,35,14.30
2013,04,25,17,36,14.30
2013,04,25,17,37,14.30
2013,04,25,17,38,14.30
2013,04,25,17,39,14.30
2013,04,25,17,40,14.30